Location: Helion Bumpstead
(52.0500°N, 0.4000°E)
Time: 20:11:50
(UTC+00:00)

Sich 1 Rocket - Pass Details

Date: 15 November 2025
Orbit: 611 x 646 km, 82.5° (Epoch: 14 December)

Event Time Altitude Azimuth Distance (km) Brightness Sun altitude
Rises 06:05:43 0° 346° (NNW) 2,969 6.8 -11.1°
Reaches altitude 10° 06:08:00 10° 342° (NNW) 2,051 5.9 -10.8°
Maximum altitude 06:12:27 56° 265° (W) 766 3.7 -10.2°
Drops below altitude 10° 06:16:50 10° 188° (S) 2,016 6.3 -9.5°
Sets 06:19:05 0° 184° (S) 2,913 7.2 -9.2°
